User: anonymous   Login
Location: Caltech
(34.1382°N, 118.1253°W)
Time: 00:01:40
(UTC-07:00)
Language:

Iridium 14 - Orbit

View from above orbital plane
View from above orbital plane
View from above satellite
View from above satellite

Ground track
Ground track

The orbit data is extracted from the following two-line orbital elements,

1 25777U 99032A   14296.48322189  .00000400  00000-0  13560-3 0  1264
2 25777 086.3943 268.4016 0001834 100.9675 014.2076 14.34219761815972
Epoch (UTC): 23 October 2014 11:35:50
Eccentricity: 0.0001834
inclination: 86.3943°
perigee height: 776 km
apogee height: 779 km
right ascension of ascending node: 268.4016°
argument of perigee: 100.9675°
revolutions per day: 14.34219761
mean anomaly at epoch: 14.2076°
orbit number at epoch: 81597

The dashed part of the orbit path shows where the satellite is in the earth's shadow,  

DLR